User: anonymous   Login
Location: Oberwangen
(47.4286°N, 8.9679°E)
Time: 13:01:08
(UTC+00:00)
Language:

Meteor 2-20 Rocket - Orbit

View from above orbital plane
View from above orbital plane
View from above satellite
View from above satellite

Ground track
Ground track

The orbit data is extracted from the following two-line orbital elements,

1 20827U 90086B   21265.38407363  .00000041  00000-0  23519-4 0  9991
2 20827  82.5267 139.7429 0012144 205.5931 154.4630 13.83906402564894
Epoch (UTC): 22 September 2021 09:13:03
Eccentricity: 0.0012144
inclination: 82.5267°
perigee height: 941 km
apogee height: 959 km
right ascension of ascending node: 139.7429°
argument of perigee: 205.5931°
revolutions per day: 13.83906402
mean anomaly at epoch: 154.4630°
orbit number at epoch: 56489

The dashed part of the orbit path shows where the satellite is in the earth's shadow,  

DLR